WJA204 CYLW-CYYC

Flight info

Callsign WJA204
Flight time 0h 40m
Altitude 35000
Route MENBO DCT NORET IGVEP7
Aircraft B737/M-SDE2E3FGHIRWXY/LB1

Departure

Time 2026-05-08 06:23
Airport Kelowna International Airport (CYLW)

Arrival

Time 2026-05-08 07:03
Airport Calgary International Airport (CYYC)
Time Latitude Longitude Altitude Speed Heading
2026-05-08 06:03 49.95102 -119.38014 1419 ft 0 kts 289°
2026-05-08 06:16 49.95101 -119.38010 1419 ft 3 kts 289°
2026-05-08 06:16 49.95092 -119.37971 1409 ft 4 kts 289°
2026-05-08 06:17 49.95083 -119.37912 1422 ft 4 kts 204°
2026-05-08 06:17 49.95107 -119.37910 1419 ft 4 kts 175°
2026-05-08 06:17 49.95114 -119.37911 1419 ft 0 kts 175°
2026-05-08 06:19 49.95113 -119.37911 1419 ft 1 kts 175°
2026-05-08 06:20 49.95096 -119.37908 1419 ft 4 kts 175°
2026-05-08 06:20 49.95053 -119.37903 1419 ft 8 kts 175°
2026-05-08 06:20 49.94992 -119.37895 1419 ft 9 kts 175°
2026-05-08 06:20 49.94961 -119.37854 1419 ft 7 kts 96°
2026-05-08 06:21 49.94925 -119.37822 1420 ft 7 kts 177°
2026-05-08 06:21 49.94863 -119.37815 1420 ft 10 kts 175°
2026-05-08 06:21 49.94798 -119.37787 1420 ft 10 kts 143°
2026-05-08 06:21 49.94755 -119.37708 1420 ft 10 kts 129°
2026-05-08 06:22 49.94695 -119.37650 1420 ft 11 kts 169°
2026-05-08 06:22 49.94648 -119.37602 1420 ft 8 kts 159°
2026-05-08 06:22 49.94635 -119.37642 1420 ft 6 kts 312°
2026-05-08 06:22 49.94672 -119.37651 1420 ft 5 kts 357°
2026-05-08 06:23 49.94774 -119.37662 1420 ft 41 kts 355°
2026-05-08 06:23 49.95329 -119.37741 1416 ft 117 kts 354°
2026-05-08 06:23 49.96339 -119.37884 1481 ft 168 kts 355°
2026-05-08 06:23 49.97538 -119.38048 2079 ft 179 kts 352°
2026-05-08 06:24 49.98747 -119.38483 2938 ft 178 kts 344°
2026-05-08 06:24 49.99954 -119.39002 3706 ft 189 kts 344°
2026-05-08 06:24 50.01307 -119.39579 4248 ft 211 kts 345°
2026-05-08 06:24 50.02790 -119.40208 4864 ft 230 kts 346°
2026-05-08 06:25 50.04376 -119.40882 5618 ft 240 kts 345°
2026-05-08 06:25 50.05972 -119.41570 6652 ft 240 kts 343°
2026-05-08 06:25 50.07668 -119.42316 7125 ft 268 kts 343°
2026-05-08 06:25 50.09491 -119.43129 7997 ft 276 kts 343°
2026-05-08 06:26 50.11352 -119.43956 9094 ft 279 kts 343°
2026-05-08 06:26 50.13224 -119.44767 10215 ft 281 kts 347°
2026-05-08 06:26 50.15232 -119.44813 10826 ft 304 kts 12°
2026-05-08 06:26 50.17203 -119.43412 11582 ft 321 kts 36°
2026-05-08 06:27 50.18691 -119.40779 12530 ft 331 kts 59°
2026-05-08 06:27 50.19477 -119.37380 13544 ft 338 kts 77°
2026-05-08 06:27 50.19850 -119.33726 14453 ft 345 kts 82°
2026-05-08 06:27 50.20105 -119.29967 15346 ft 352 kts 83°
2026-05-08 06:28 50.20331 -119.26128 16248 ft 359 kts 83°
2026-05-08 06:28 50.20564 -119.22206 17147 ft 366 kts 83°
2026-05-08 06:28 50.20785 -119.18270 18041 ft 373 kts 84°
2026-05-08 06:28 50.20971 -119.14198 18836 ft 380 kts 84°
2026-05-08 06:29 50.21171 -119.10054 19629 ft 386 kts 84°
2026-05-08 06:29 50.21405 -119.05787 20426 ft 393 kts 83°
2026-05-08 06:29 50.21666 -119.01511 21209 ft 399 kts 83°
2026-05-08 06:29 50.21952 -118.97164 21976 ft 405 kts 82°
2026-05-08 06:30 50.22256 -118.92753 22737 ft 412 kts 82°
2026-05-08 06:30 50.22571 -118.88271 23489 ft 419 kts 82°
2026-05-08 06:30 50.22893 -118.83721 24128 ft 424 kts 82°
2026-05-08 06:30 50.23220 -118.79120 24805 ft 428 kts 82°
2026-05-08 06:31 50.23544 -118.74539 25486 ft 432 kts 82°
2026-05-08 06:31 50.23873 -118.69859 26160 ft 436 kts 81°
2026-05-08 06:31 50.24205 -118.65120 26744 ft 442 kts 81°
2026-05-08 06:31 50.24538 -118.60321 27345 ft 447 kts 81°
2026-05-08 06:32 50.24873 -118.55469 27948 ft 451 kts 81°
2026-05-08 06:32 50.25208 -118.50590 28561 ft 454 kts 80°
2026-05-08 06:32 50.25541 -118.45679 29360 ft 453 kts 80°
2026-05-08 06:32 50.25869 -118.40794 30219 ft 450 kts 80°
2026-05-08 06:33 50.26192 -118.35950 30905 ft 448 kts 80°
2026-05-08 06:33 50.26514 -118.31109 31513 ft 449 kts 80°
2026-05-08 06:33 50.26837 -118.26244 32102 ft 449 kts 80°
2026-05-08 06:33 50.27156 -118.21410 32759 ft 447 kts 79°
2026-05-08 06:34 50.27367 -118.18195 32988 ft 450 kts 79°
2026-05-08 06:34 50.27687 -118.13311 32956 ft 453 kts 79°
2026-05-08 06:34 50.28313 -118.03581 32955 ft 446 kts 79°
2026-05-08 06:35 50.28930 -117.93901 32953 ft 448 kts 79°
2026-05-08 06:35 50.29539 -117.84212 32961 ft 448 kts 80°
2026-05-08 06:36 50.30141 -117.74506 32995 ft 449 kts 79°
2026-05-08 06:36 50.30736 -117.64775 32971 ft 449 kts 79°
2026-05-08 06:37 50.31322 -117.55040 32976 ft 449 kts 79°
2026-05-08 06:37 50.31900 -117.45316 32979 ft 448 kts 79°
2026-05-08 06:38 50.32468 -117.35616 32964 ft 447 kts 79°
2026-05-08 06:38 50.33024 -117.25962 32998 ft 444 kts 79°
2026-05-08 06:39 50.33574 -117.16320 32958 ft 444 kts 79°
2026-05-08 06:39 50.34115 -117.06689 32969 ft 445 kts 79°
2026-05-08 06:40 50.34650 -116.97020 32973 ft 446 kts 79°
2026-05-08 06:40 50.35175 -116.87344 32997 ft 447 kts 79°
2026-05-08 06:41 50.35696 -116.77635 33031 ft 449 kts 79°
2026-05-08 06:41 50.36210 -116.67883 32988 ft 449 kts 79°
2026-05-08 06:42 50.36713 -116.58138 32979 ft 448 kts 79°
2026-05-08 06:42 50.37203 -116.48512 32978 ft 445 kts 79°
2026-05-08 06:43 50.37691 -116.38812 32996 ft 443 kts 79°
2026-05-08 06:43 50.38163 -116.29261 33004 ft 443 kts 79°
2026-05-08 06:44 50.38636 -116.19579 32992 ft 447 kts 79°
2026-05-08 06:44 50.39651 -116.10100 32979 ft 432 kts 64°
2026-05-08 06:45 50.40628 -116.05645 32572 ft 434 kts 62°
2026-05-08 06:45 50.41651 -116.01205 32055 ft 433 kts 62°
2026-05-08 06:45 50.42678 -115.96767 31462 ft 433 kts 62°
2026-05-08 06:45 50.43698 -115.92304 30854 ft 434 kts 63°
2026-05-08 06:46 50.44704 -115.87833 30230 ft 436 kts 63°
2026-05-08 06:46 50.45707 -115.83322 29485 ft 440 kts 63°
2026-05-08 06:46 50.46709 -115.78774 28678 ft 441 kts 63°
2026-05-08 06:46 50.47705 -115.74230 27902 ft 441 kts 64°
2026-05-08 06:47 50.48703 -115.69664 27081 ft 442 kts 64°
2026-05-08 06:47 50.49699 -115.65094 26281 ft 442 kts 64°
2026-05-08 06:47 50.50687 -115.60550 25675 ft 438 kts 64°
2026-05-08 06:47 50.51668 -115.56034 25045 ft 434 kts 65°
2026-05-08 06:48 50.52639 -115.51563 24408 ft 432 kts 65°
2026-05-08 06:48 50.53604 -115.47111 23764 ft 429 kts 65°
2026-05-08 06:48 50.54559 -115.42688 23030 ft 425 kts 65°
2026-05-08 06:48 50.55499 -115.38299 22383 ft 420 kts 65°
2026-05-08 06:49 50.56424 -115.33976 21706 ft 414 kts 65°
2026-05-08 06:49 50.57331 -115.29726 21132 ft 407 kts 65°
2026-05-08 06:49 50.58227 -115.25526 20486 ft 403 kts 65°
2026-05-08 06:49 50.59110 -115.21376 19880 ft 397 kts 66°
2026-05-08 06:50 50.59981 -115.17275 19314 ft 393 kts 66°
2026-05-08 06:50 50.60847 -115.13199 18686 ft 392 kts 66°
2026-05-08 06:50 50.61705 -115.09147 18054 ft 390 kts 66°
2026-05-08 06:50 50.62546 -115.05162 17398 ft 386 kts 67°
2026-05-08 06:51 50.63400 -115.01120 16750 ft 383 kts 67°
2026-05-08 06:51 50.64236 -114.97174 16176 ft 378 kts 68°
2026-05-08 06:51 50.65066 -114.93250 15561 ft 374 kts 68°
2026-05-08 06:51 50.65881 -114.89379 14962 ft 370 kts 69°
2026-05-08 06:52 50.66686 -114.85550 14382 ft 366 kts 69°
2026-05-08 06:52 50.67478 -114.81757 13819 ft 362 kts 70°
2026-05-08 06:52 50.68252 -114.78028 13523 ft 350 kts 70°
2026-05-08 06:52 50.68992 -114.74458 13359 ft 335 kts 70°
2026-05-08 06:53 50.69687 -114.71094 13202 ft 320 kts 70°
2026-05-08 06:53 50.70361 -114.67836 13065 ft 306 kts 69°
2026-05-08 06:53 50.71295 -114.64922 12861 ft 291 kts 47°
2026-05-08 06:53 50.72653 -114.62643 12658 ft 281 kts 43°
2026-05-08 06:54 50.74035 -114.60434 12400 ft 279 kts 43°
2026-05-08 06:54 50.75381 -114.58272 12161 ft 279 kts 43°
2026-05-08 06:54 50.76734 -114.56085 11903 ft 278 kts 43°
2026-05-08 06:54 50.78076 -114.53903 11633 ft 276 kts 43°
2026-05-08 06:55 50.79408 -114.51727 11378 ft 275 kts 44°
2026-05-08 06:55 50.80732 -114.49559 11116 ft 273 kts 44°
2026-05-08 06:55 50.82082 -114.47452 10857 ft 272 kts 42°
2026-05-08 06:55 50.83461 -114.45371 10600 ft 270 kts 42°
2026-05-08 06:56 50.84803 -114.43351 10349 ft 269 kts 42°
2026-05-08 06:56 50.86154 -114.41310 10098 ft 268 kts 42°
2026-05-08 06:56 50.87489 -114.39283 9834 ft 267 kts 43°
2026-05-08 06:56 50.88823 -114.37254 9571 ft 265 kts 43°
2026-05-08 06:57 50.90147 -114.35235 9303 ft 264 kts 43°
2026-05-08 06:57 50.91439 -114.33214 9036 ft 259 kts 49°
2026-05-08 06:57 50.92292 -114.30729 8752 ft 256 kts 68°
2026-05-08 06:57 50.92923 -114.28104 8442 ft 253 kts 68°
2026-05-08 06:58 50.93543 -114.25506 8145 ft 251 kts 68°
2026-05-08 06:58 50.94162 -114.22926 7843 ft 249 kts 68°
2026-05-08 06:58 50.94778 -114.20371 7552 ft 246 kts 68°
2026-05-08 06:58 50.95383 -114.17877 7279 ft 238 kts 68°
2026-05-08 06:59 50.95970 -114.15465 6983 ft 231 kts 68°
2026-05-08 06:59 50.96537 -114.13129 6720 ft 223 kts 68°
2026-05-08 06:59 50.97084 -114.10880 6464 ft 213 kts 68°
2026-05-08 06:59 50.97607 -114.08725 6194 ft 205 kts 68°
2026-05-08 07:00 50.98108 -114.06676 5944 ft 194 kts 66°
2026-05-08 07:00 50.98745 -114.04850 5691 ft 184 kts 51°
2026-05-08 07:00 50.99619 -114.03461 5470 ft 174 kts 34°
2026-05-08 07:00 51.00631 -114.02603 5316 ft 153 kts 18°
2026-05-08 07:01 51.01609 -114.02225 5115 ft 139 kts
2026-05-08 07:01 51.02563 -114.02124 4954 ft 138 kts 359°
2026-05-08 07:01 51.03525 -114.02125 4785 ft 138 kts 358°
2026-05-08 07:01 51.04485 -114.02127 4617 ft 138 kts 358°
2026-05-08 07:02 51.05444 -114.02134 4426 ft 137 kts 359°
2026-05-08 07:02 51.06397 -114.02145 4251 ft 138 kts 359°
2026-05-08 07:02 51.07359 -114.02132 4049 ft 138 kts 358°
2026-05-08 07:02 51.08302 -114.02134 3894 ft 135 kts 358°
2026-05-08 07:03 51.09246 -114.02141 3726 ft 134 kts 358°
2026-05-08 07:03 51.10177 -114.02139 3556 ft 128 kts 359°
2026-05-08 07:03 51.10951 -114.02138 3561 ft 90 kts
2026-05-08 07:03 51.11422 -114.02138 3556 ft 46 kts
2026-05-08 07:04 51.11600 -114.02077 3556 ft 16 kts 30°
2026-05-08 07:04 51.11697 -114.01987 3557 ft 16 kts 30°
2026-05-08 07:04 51.11755 -114.01888 3558 ft 11 kts 82°
2026-05-08 07:04 51.11801 -114.01798 3558 ft 12 kts 14°
2026-05-08 07:05 51.11890 -114.01795 3558 ft 14 kts 360°
2026-05-08 07:05 51.11996 -114.01795 3559 ft 16 kts 360°
2026-05-08 07:05 51.12121 -114.01795 3558 ft 20 kts
2026-05-08 07:05 51.12264 -114.01796 3557 ft 22 kts
2026-05-08 07:06 51.12421 -114.01795 3557 ft 23 kts 360°
2026-05-08 07:06 51.12579 -114.01795 3557 ft 22 kts
2026-05-08 07:06 51.12732 -114.01795 3558 ft 22 kts 360°
2026-05-08 07:06 51.12880 -114.01795 3558 ft 21 kts
2026-05-08 07:07 51.13021 -114.01795 3556 ft 17 kts 359°
2026-05-08 07:07 51.13113 -114.01840 3556 ft 14 kts 336°
2026-05-08 07:07 51.13209 -114.01854 3558 ft 15 kts
2026-05-08 07:07 51.13312 -114.01848 3558 ft 14 kts
2026-05-08 07:08 51.13367 -114.01740 3558 ft 13 kts 65°
2026-05-08 07:08 51.13406 -114.01614 3556 ft 13 kts 64°
2026-05-08 07:08 51.13425 -114.01484 3558 ft 12 kts 90°
2026-05-08 07:08 51.13420 -114.01415 3558 ft 4 kts 124°
2026-05-08 07:09 51.13395 -114.01408 3558 ft 4 kts 179°
2026-05-08 07:09 51.13370 -114.01408 3558 ft 4 kts 180°
2026-05-08 07:09 51.13346 -114.01408 3558 ft 3 kts 180°
2026-05-08 07:09 51.13336 -114.01408 3555 ft 1 kts 180°